This demonstration page uses our WeatherBlox Daily Observations layout. Learn more.

Hourly Observations for December 6, 2017

Temp ( °F °C ) Dew Point ( °F °C ) Humidity (%) Winds ( mph kmh ) Pressure ( in mb ) Visibility ( mi km ) Precip ( " mm )
12:54 am 00:54 Partly Cloudy 39 3.9 26 -3.3 60 60 WNW 12 19 30.17 1022 10 16.0934 0 0
1:54 am 01:54 Clear 37 2.8 27 -2.8 67 67 WNW 10 17 30.19 1022 10 16.0934 0 0
2:54 am 02:54 Clear 35 1.7 27 -2.8 72 72 W 6 9 30.19 1023 10 16.0934 0 0
3:54 am 03:54 Clear 33 0.6 25 -3.9 72 72 W 7 11 30.19 1022 10 16.0934 0 0
4:54 am 04:54 Clear 33 0.6 24 -4.4 70 70 W 14 22 30.21 1023 10 16.0934 0 0
5:54 am 05:54 Clear 33 0.6 25 -3.9 72 72 W 12 19 30.22 1023 10 16.0934 0 0
6:54 am 06:54 Clear 32 0 25 -3.9 75 75 W 12 19 30.22 1023 10 16.0934 0 0
7:54 am 07:54 Sunny 34 1.1 26 -3.3 73 73 WNW 15 24 30.22 1023 10 16.0934 0 0
8:54 am 08:54 Cloudy 35 1.7 26 -3.3 70 70 WNW 14 22 30.24 1024 10 16.0934 0 0
9:54 am 09:54 Sunny 40 4.4 27 -2.8 60 60 WNW 20 31 30.26 1025 10 16.0934 0 0
10:54 am 10:54 Sunny 42 5.6 26 -3.3 53 53 WNW 21 33 30.26 1025 10 16.0934 0 0
11:54 am 11:54 Mostly Cloudy 44 6.7 24 -4.4 45 45 NW 17 28 30.24 1024 10 16.0934 0 0
12:54 pm 12:54 Mostly Cloudy 43 6.1 23 -5 45 45 NW 22 35 30.24 1024 10 16.0934 0 0
1:54 pm 13:54 Partly Cloudy 45 7.2 24 -4.4 44 44 NW 16 26 30.23 1024 10 16.0934 0 0
2:17 pm 14:17 Mostly Cloudy with Scattered Snow Showers 35 1.7 31 -0.6 85 85 N 30 48 30.3 1026 1 1.60934 0 0.0254
2:20 pm 14:20 Windy with Snow Likely 35 1.7 31 -0.6 85 85 N 31 50 30.3 1026 1 1.60934 0 0.0254
2:41 pm 14:41 Mostly Cloudy with Scattered Snow Showers 34 1.1 31 -0.6 89 89 N 16 26 30.3 1026 3 4.82802 0 0.0254
2:54 pm 14:54 Mostly Cloudy 34 1.1 31 -0.6 89 89 NNW 25 41 30.29 1026 10 16.0934 0 0.0254
3:05 pm 15:05 Mostly Cloudy 34 1.1 29 -1.7 82 82 NNW 21 33 30.33 1027 10 16.0934 0 0
3:14 pm 15:14 Mostly Cloudy 34 1.1 28 -2.2 79 79 NNW 22 35 30.33 1027 10 16.0934 0 0
3:54 pm 15:54 Mostly Cloudy 32 0 23 -5 69 69 NNW 26 43 30.33 1027 10 16.0934 0 0
4:54 pm 16:54 Mostly Sunny 28 -2.2 17 -8.3 63 63 NNW 10 17 30.38 1029 10 16.0934 0 0
5:54 pm 17:54 Clear 27 -2.8 14 -10 58 58 NNW 16 26 30.41 1030 10 16.0934 0 0
6:54 pm 18:54 Clear 25 -3.9 14 -10 63 63 NNW 16 26 30.44 1031 10 16.0934 0 0
7:54 pm 19:54 Clear 24 -4.4 13 -10.6 62 62 NNW 21 33 30.46 1031 10 16.0934 0 0
8:54 pm 20:54 Partly Cloudy 22 -5.6 13 -10.6 68 68 NNW 18 30 30.48 1032 10 16.0934 0 0
9:04 pm 21:04 Mostly Cloudy 23 -5 13 -10.6 65 65 NNW 17 28 30.5 1033 10 16.0934 0 0
9:51 pm 21:51 Partly Cloudy 21 -6 12 -11 68 68 NNW 14 22 30.53 1034 10 16.0934 0 0
9:54 pm 21:54 Mostly Clear 21 -6.1 13 -10.6 71 71 NNW 14 22 30.49 1032 10 16.0934 0 0
10:54 pm 22:54 Clear 20 -6.7 11 -11.7 68 68 NNW 17 28 30.49 1033 10 16.0934 0 0
11:54 pm 23:54 Clear 20 -6.7 11 -11.7 68 68 NNW 16 26 30.49 1033 10 16.0934 0 0

Powered by AerisWeather